Data supplied by UK-AIR on 2/5/2024
All Data GMT hour ending 
Status: R =Ratified P=Provisional,P*=As supplied
,,Dumbarton Roadside,,,,,,,,,,,,,,,,,,,,,,,
Date,time,"Nitric oxide",status,unit,"Nitrogen dioxide",status,unit,"Nitrogen oxides as nitrogen dioxide",status,unit
 
01-01-2024,01:00,7.71664,P,ugm-3,30.37854,P,ugm-3,42.21056,P,ugm-3
01-01-2024,02:00,15.69786,P,ugm-3,32.23351,P,ugm-3,56.30322,P,ugm-3
01-01-2024,03:00,10.64897,P,ugm-3,28.17496,P,ugm-3,44.50315,P,ugm-3
01-01-2024,04:00,5.12606,P,ugm-3,17.17318,P,ugm-3,25.03302,P,ugm-3
01-01-2024,05:00,1.35593,P,ugm-3,3.48384,P,ugm-3,5.56289,P,ugm-3
01-01-2024,06:00,2.48035,P,ugm-3,8.78922,P,ugm-3,12.59237,P,ugm-3
01-01-2024,07:00,1.62050,P,ugm-3,11.62480,P,ugm-3,14.10952,P,ugm-3
01-01-2024,08:00,1.38900,P,ugm-3,10.91775,P,ugm-3,13.04751,P,ugm-3
01-01-2024,09:00,1.65357,P,ugm-3,9.29836,P,ugm-3,11.83379,P,ugm-3
01-01-2024,10:00,1.95121,P,ugm-3,11.32000,P,ugm-3,14.31181,P,ugm-3
01-01-2024,11:00,2.38114,P,ugm-3,9.39649,P,ugm-3,13.04751,P,ugm-3
01-01-2024,12:00,3.34021,P,ugm-3,7.82480,P,ugm-3,12.94637,P,ugm-3
01-01-2024,13:00,2.28192,P,ugm-3,5.75573,P,ugm-3,9.25463,P,ugm-3
01-01-2024,14:00,0.23150,P,ugm-3,2.17363,P,ugm-3,2.52859,P,ugm-3
01-01-2024,15:00,2.41421,P,ugm-3,10.91351,P,ugm-3,14.61524,P,ugm-3
01-01-2024,16:00,0.76064,P,ugm-3,13.19608,P,ugm-3,14.36238,P,ugm-3
01-01-2024,17:00,4.06777,P,ugm-3,20.61644,P,ugm-3,26.85360,P,ugm-3
01-01-2024,18:00,2.71185,P,ugm-3,12.53057,P,ugm-3,16.68868,P,ugm-3
01-01-2024,19:00,2.05042,P,ugm-3,7.83014,P,ugm-3,10.97407,P,ugm-3
01-01-2024,20:00,1.71971,P,ugm-3,4.44320,P,ugm-3,7.08005,P,ugm-3
01-01-2024,21:00,1.28978,P,ugm-3,3.07954,P,ugm-3,5.05718,P,ugm-3
01-01-2024,22:00,0.59528,P,ugm-3,2.57670,P,ugm-3,3.48945,P,ugm-3
01-01-2024,23:00,0.99214,P,ugm-3,2.92906,P,ugm-3,4.45032,P,ugm-3
01-01-2024,24:00,0.39686,P,ugm-3,1.76837,P,ugm-3,2.37687,P,ugm-3
02-01-2024,01:00,0.44103,P,ugm-3,2.29126,P,ugm-3,2.96749,P,ugm-3
02-01-2024,02:00,0.22051,P,ugm-3,2.42705,P,ugm-3,2.76516,P,ugm-3
02-01-2024,03:00,0.16538,P,ugm-3,2.62960,P,ugm-3,2.88319,P,ugm-3
02-01-2024,04:00,0.16538,P,ugm-3,2.17436,P,ugm-3,2.42795,P,ugm-3
02-01-2024,05:00,0.43000,P,ugm-3,3.08376,P,ugm-3,3.74308,P,ugm-3
02-01-2024,06:00,3.37385,P,ugm-3,8.53462,P,ugm-3,13.70778,P,ugm-3
02-01-2024,07:00,4.36615,P,ugm-3,15.40976,P,ugm-3,22.10443,P,ugm-3
02-01-2024,08:00,6.48308,P,ugm-3,21.57214,P,ugm-3,31.51272,P,ugm-3
02-01-2024,09:00,4.46539,P,ugm-3,20.16408,P,ugm-3,27.01091,P,ugm-3
02-01-2024,10:00,10.91539,P,ugm-3,29.29313,P,ugm-3,46.02982,P,ugm-3
02-01-2024,11:00,9.95615,P,ugm-3,31.77558,P,ugm-3,47.04147,P,ugm-3
02-01-2024,12:00,12.33769,P,ugm-3,26.50530,P,ugm-3,45.42284,P,ugm-3
02-01-2024,13:00,5.95385,P,ugm-3,24.91273,P,ugm-3,34.04183,P,ugm-3
02-01-2024,14:00,21.63231,P,ugm-3,45.13220,P,ugm-3,78.30128,P,ugm-3
02-01-2024,15:00,21.03692,P,ugm-3,43.16192,P,ugm-3,75.41809,P,ugm-3
02-01-2024,16:00,20.73923,P,ugm-3,42.25266,P,ugm-3,74.05237,P,ugm-3
02-01-2024,17:00,32.28308,P,ugm-3,48.62948,P,ugm-3,98.12951,P,ugm-3
02-01-2024,18:00,24.97308,P,ugm-3,43.19644,P,ugm-3,81.48796,P,ugm-3
02-01-2024,19:00,12.80077,P,ugm-3,37.12568,P,ugm-3,56.75325,P,ugm-3
02-01-2024,20:00,23.68308,P,ugm-3,47.24828,P,ugm-3,83.56183,P,ugm-3
02-01-2024,21:00,12.60231,P,ugm-3,37.02533,P,ugm-3,56.34860,P,ugm-3
02-01-2024,22:00,22.75693,P,ugm-3,42.75024,P,ugm-3,77.64371,P,ugm-3
02-01-2024,23:00,10.35308,P,ugm-3,41.78923,P,ugm-3,57.66373,P,ugm-3
02-01-2024,24:00,5.95385,P,ugm-3,39.73332,P,ugm-3,48.86243,P,ugm-3
03-01-2024,01:00,3.35236,P,ugm-3,37.62747,P,ugm-3,42.76769,P,ugm-3
03-01-2024,02:00,0.83809,P,ugm-3,33.59017,P,ugm-3,34.87523,P,ugm-3
03-01-2024,03:00,0.72782,P,ugm-3,14.92191,P,ugm-3,16.03788,P,ugm-3
03-01-2024,04:00,1.09172,P,ugm-3,18.96786,P,ugm-3,20.64182,P,ugm-3
03-01-2024,05:00,6.05410,P,ugm-3,29.57236,P,ugm-3,38.85518,P,ugm-3
03-01-2024,06:00,0.59549,P,ugm-3,11.27977,P,ugm-3,12.19284,P,ugm-3
03-01-2024,07:00,1.25714,P,ugm-3,17.44942,P,ugm-3,19.37700,P,ugm-3
03-01-2024,08:00,13.00143,P,ugm-3,29.44321,P,ugm-3,49.37846,P,ugm-3
03-01-2024,09:00,9.49468,P,ugm-3,28.39488,P,ugm-3,42.95319,P,ugm-3
03-01-2024,10:00,6.02102,P,ugm-3,23.29900,P,ugm-3,32.53110,P,ugm-3
03-01-2024,11:00,12.14129,P,ugm-3,27.62534,P,ugm-3,46.24172,P,ugm-3
03-01-2024,12:00,6.84808,P,ugm-3,12.21587,P,ugm-3,22.71612,P,ugm-3
03-01-2024,13:00,2.54736,P,ugm-3,9.75414,P,ugm-3,13.66003,P,ugm-3
03-01-2024,14:00,0.59549,P,ugm-3,7.78888,P,ugm-3,8.70194,P,ugm-3
03-01-2024,15:00,0.66165,P,ugm-3,9.91350,P,ugm-3,10.92802,P,ugm-3
03-01-2024,16:00,0.29774,P,ugm-3,8.34660,P,ugm-3,8.80313,P,ugm-3
03-01-2024,17:00,0.46316,P,ugm-3,9.76253,P,ugm-3,10.47269,P,ugm-3
03-01-2024,18:00,0.16541,P,ugm-3,5.46335,P,ugm-3,5.71697,P,ugm-3
03-01-2024,19:00,0.26466,P,ugm-3,4.34991,P,ugm-3,4.75571,P,ugm-3
03-01-2024,20:00,0.13233,P,ugm-3,3.13621,P,ugm-3,3.33912,P,ugm-3
03-01-2024,21:00,0.52932,P,ugm-3,7.38440,P,ugm-3,8.19602,P,ugm-3
03-01-2024,22:00,2.67968,P,ugm-3,14.50932,P,ugm-3,18.61811,P,ugm-3
03-01-2024,23:00,1.05864,P,ugm-3,5.56093,P,ugm-3,7.18416,P,ugm-3
03-01-2024,24:00,0.09925,P,ugm-3,1.21383,P,ugm-3,1.36600,P,ugm-3
04-01-2024,01:00,0.35294,P,ugm-3,6.27339,P,ugm-3,6.81456,P,ugm-3
04-01-2024,02:00,0.08824,P,ugm-3,1.28160,P,ugm-3,1.41689,P,ugm-3
04-01-2024,03:00,0.06618,P,ugm-3,2.27688,P,ugm-3,2.37835,P,ugm-3
04-01-2024,04:00,0.19853,P,ugm-3,2.63058,P,ugm-3,2.93498,P,ugm-3
04-01-2024,05:00,0.49632,P,ugm-3,6.07041,P,ugm-3,6.83143,P,ugm-3
04-01-2024,06:00,0.03309,P,ugm-3,0.96133,P,ugm-3,1.01206,P,ugm-3
04-01-2024,07:00,0.06618,P,ugm-3,1.31542,P,ugm-3,1.41689,P,ugm-3
04-01-2024,08:00,10.62129,P,ugm-3,22.93170,P,ugm-3,39.21744,P,ugm-3
04-01-2024,09:00,17.27200,P,ugm-3,33.68379,P,ugm-3,60.16715,P,ugm-3
04-01-2024,10:00,0.46323,P,ugm-3,12.54774,P,ugm-3,13.25803,P,ugm-3
04-01-2024,11:00,1.52205,P,ugm-3,11.98691,P,ugm-3,14.32069,P,ugm-3
04-01-2024,12:00,2.91175,P,ugm-3,13.90432,P,ugm-3,18.36894,P,ugm-3
04-01-2024,13:00,0.72794,P,ugm-3,4.85502,P,ugm-3,5.97117,P,ugm-3
04-01-2024,14:00,2.34926,P,ugm-3,7.27754,P,ugm-3,10.87968,P,ugm-3
04-01-2024,15:00,0.49632,P,ugm-3,3.38844,P,ugm-3,4.14946,P,ugm-3
04-01-2024,16:00,8.96688,P,ugm-3,18.23217,P,ugm-3,31.98119,P,ugm-3
04-01-2024,17:00,2.84558,P,ugm-3,17.95283,P,ugm-3,22.31599,P,ugm-3
04-01-2024,18:00,0.39706,P,ugm-3,17.45651,P,ugm-3,18.06532,P,ugm-3
04-01-2024,19:00,1.29044,P,ugm-3,30.96401,P,ugm-3,32.94265,P,ugm-3
04-01-2024,20:00,1.12500,P,ugm-3,23.47540,P,ugm-3,25.20037,P,ugm-3
04-01-2024,21:00,0.29779,P,ugm-3,10.47367,P,ugm-3,10.93028,P,ugm-3
04-01-2024,22:00,0.19853,P,ugm-3,6.52702,P,ugm-3,6.83143,P,ugm-3
04-01-2024,23:00,0.16544,P,ugm-3,6.07172,P,ugm-3,6.32539,P,ugm-3
04-01-2024,24:00,1.88602,P,ugm-3,8.69626,P,ugm-3,11.58812,P,ugm-3
05-01-2024,01:00,0.13238,P,ugm-3,6.14060,P,ugm-3,6.34357,P,ugm-3
05-01-2024,02:00,0.22063,P,ugm-3,9.10959,P,ugm-3,9.44787,P,ugm-3
05-01-2024,03:00,0.09928,P,ugm-3,6.93368,P,ugm-3,7.08591,P,ugm-3
05-01-2024,04:00,0.13238,P,ugm-3,4.95962,P,ugm-3,5.16259,P,ugm-3
05-01-2024,05:00,0.43022,P,ugm-3,7.03361,P,ugm-3,7.69327,P,ugm-3
05-01-2024,06:00,0.59569,P,ugm-3,7.13419,P,ugm-3,8.04757,P,ugm-3
05-01-2024,07:00,0.59569,P,ugm-3,12.44862,P,ugm-3,13.36200,P,ugm-3
05-01-2024,08:00,2.11800,P,ugm-3,16.13746,P,ugm-3,19.38501,P,ugm-3
05-01-2024,09:00,45.43767,P,ugm-3,40.41449,P,ugm-3,110.08461,P,ugm-3
05-01-2024,10:00,66.05506,P,ugm-3,50.65907,P,ugm-3,151.94207,P,ugm-3
05-01-2024,11:00,32.86206,P,ugm-3,38.13542,P,ugm-3,88.52321,P,ugm-3
05-01-2024,12:00,35.14553,P,ugm-3,42.52988,P,ugm-3,96.41894,P,ugm-3
05-01-2024,13:00,19.35982,P,ugm-3,26.19278,P,ugm-3,55.87743,P,ugm-3
05-01-2024,14:00,23.72819,P,ugm-3,33.86897,P,ugm-3,70.25170,P,ugm-3
05-01-2024,15:00,25.54835,P,ugm-3,34.36799,P,ugm-3,73.54158,P,ugm-3
05-01-2024,16:00,34.98006,P,ugm-3,40.25292,P,ugm-3,93.88826,P,ugm-3
05-01-2024,17:00,58.44350,P,ugm-3,65.56923,P,ugm-3,155.18134,P,ugm-3
05-01-2024,18:00,107.65386,P,ugm-3,73.93055,P,ugm-3,238.99749,P,ugm-3
05-01-2024,19:00,171.35926,P,ugm-3,82.89318,P,ugm-3,345.64037,P,ugm-3
05-01-2024,20:00,107.98479,P,ugm-3,72.36023,P,ugm-3,237.93460,P,ugm-3
05-01-2024,21:00,65.72412,P,ugm-3,62.95947,P,ugm-3,163.73504,P,ugm-3
05-01-2024,22:00,33.06062,P,ugm-3,51.69910,P,ugm-3,102.39134,P,ugm-3
05-01-2024,23:00,36.63474,P,ugm-3,43.89063,P,ugm-3,100.06312,P,ugm-3
05-01-2024,24:00,10.15977,P,ugm-3,29.92354,P,ugm-3,45.50164,P,ugm-3
06-01-2024,01:00,10.63591,P,ugm-3,27.76853,P,ugm-3,44.07670,P,ugm-3
06-01-2024,02:00,5.64895,P,ugm-3,21.64535,P,ugm-3,30.30695,P,ugm-3
06-01-2024,03:00,6.48747,P,ugm-3,18.09843,P,ugm-3,28.04574,P,ugm-3
06-01-2024,04:00,5.32899,P,ugm-3,19.06475,P,ugm-3,27.23575,P,ugm-3
06-01-2024,05:00,7.44735,P,ugm-3,14.95604,P,ugm-3,26.37515,P,ugm-3
06-01-2024,06:00,7.01705,P,ugm-3,17.59015,P,ugm-3,28.34949,P,ugm-3
06-01-2024,07:00,10.22769,P,ugm-3,24.61453,P,ugm-3,40.29677,P,ugm-3
06-01-2024,08:00,11.88265,P,ugm-3,28.05060,P,ugm-3,46.27041,P,ugm-3
06-01-2024,09:00,38.69310,P,ugm-3,40.55272,P,ugm-3,99.88131,P,ugm-3
06-01-2024,10:00,84.13845,P,ugm-3,47.61692,P,ugm-3,176.62741,P,ugm-3
06-01-2024,11:00,120.44840,P,ugm-3,58.25999,P,ugm-3,242.94496,P,ugm-3
06-01-2024,12:00,78.21367,P,ugm-3,52.80340,P,ugm-3,172.72936,P,ugm-3
06-01-2024,13:00,42.56572,P,ugm-3,40.03157,P,ugm-3,105.29809,P,ugm-3
06-01-2024,14:00,29.32599,P,ugm-3,37.45011,P,ugm-3,82.41600,P,ugm-3
06-01-2024,15:00,49.61587,P,ugm-3,48.91425,P,ugm-3,124.99085,P,ugm-3
06-01-2024,16:00,67.95289,P,ugm-3,54.10852,P,ugm-3,158.30150,P,ugm-3
06-01-2024,17:00,99.43033,P,ugm-3,55.86037,P,ugm-3,208.31809,P,ugm-3
06-01-2024,18:00,133.42333,P,ugm-3,57.75440,P,ugm-3,262.33398,P,ugm-3
06-01-2024,19:00,79.00806,P,ugm-3,48.39604,P,ugm-3,169.54004,P,ugm-3
06-01-2024,20:00,64.60986,P,ugm-3,43.43972,P,ugm-3,142.50678,P,ugm-3
06-01-2024,21:00,67.95289,P,ugm-3,41.09813,P,ugm-3,145.29111,P,ugm-3
06-01-2024,22:00,42.00303,P,ugm-3,35.83193,P,ugm-3,100.23568,P,ugm-3
06-01-2024,23:00,19.42930,P,ugm-3,31.05897,P,ugm-3,60.85014,P,ugm-3
06-01-2024,24:00,12.67704,P,ugm-3,26.12382,P,ugm-3,45.56167,P,ugm-3
07-01-2024,01:00,5.64991,P,ugm-3,21.51512,P,ugm-3,30.17819,P,ugm-3
07-01-2024,02:00,5.12023,P,ugm-3,20.50444,P,ugm-3,28.35535,P,ugm-3
07-01-2024,03:00,6.25683,P,ugm-3,20.07818,P,ugm-3,29.67184,P,ugm-3
07-01-2024,04:00,41.24872,P,ugm-3,36.80671,P,ugm-3,100.05386,P,ugm-3
07-01-2024,05:00,31.71450,P,ugm-3,36.58971,P,ugm-3,85.21794,P,ugm-3
07-01-2024,06:00,40.58662,P,ugm-3,38.02445,P,ugm-3,100.25640,P,ugm-3
07-01-2024,07:00,39.79210,P,ugm-3,39.34396,P,ugm-3,100.35767,P,ugm-3
07-01-2024,08:00,39.49416,P,ugm-3,38.88938,P,ugm-3,99.44624,P,ugm-3
07-01-2024,09:00,39.92452,P,ugm-3,38.38140,P,ugm-3,99.59815,P,ugm-3
07-01-2024,10:00,33.60148,P,ugm-3,36.32938,P,ugm-3,87.85093,P,ugm-3
07-01-2024,11:00,31.54898,P,ugm-3,33.70417,P,ugm-3,82.07859,P,ugm-3
07-01-2024,12:00,26.58324,P,ugm-3,31.34319,P,ugm-3,72.10359,P,ugm-3
07-01-2024,13:00,21.68371,P,ugm-3,27.81736,P,ugm-3,61.06526,P,ugm-3
07-01-2024,14:00,24.86179,P,ugm-3,28.10911,P,ugm-3,66.22998,P,ugm-3
07-01-2024,15:00,48.53180,P,ugm-3,36.12083,P,ugm-3,110.53521,P,ugm-3
07-01-2024,16:00,68.39474,P,ugm-3,42.52668,P,ugm-3,147.39716,P,ugm-3
07-01-2024,17:00,39.62658,P,ugm-3,36.25588,P,ugm-3,97.01579,P,ugm-3
07-01-2024,18:00,53.29890,P,ugm-3,38.43193,P,ugm-3,120.15577,P,ugm-3
07-01-2024,19:00,77.46549,P,ugm-3,41.22640,P,ugm-3,160.00516,P,ugm-3
07-01-2024,20:00,61.60823,P,ugm-3,40.27388,P,ugm-3,134.73852,P,ugm-3
07-01-2024,21:00,77.03512,P,ugm-3,39.45583,P,ugm-3,157.57470,P,ugm-3
07-01-2024,22:00,59.25779,P,ugm-3,35.26998,P,ugm-3,126.13065,P,ugm-3
07-01-2024,23:00,61.57513,P,ugm-3,32.12184,P,ugm-3,126.53572,P,ugm-3
07-01-2024,24:00,44.06263,P,ugm-3,30.71989,P,ugm-3,98.28165,P,ugm-3
08-01-2024,01:00,47.85572,P,ugm-3,33.04430,P,ugm-3,106.42204,P,ugm-3
08-01-2024,02:00,32.09512,P,ugm-3,31.34750,P,ugm-3,80.55933,P,ugm-3
08-01-2024,03:00,27.71349,P,ugm-3,29.77700,P,ugm-3,72.27043,P,ugm-3
08-01-2024,04:00,32.51452,P,ugm-3,29.55648,P,ugm-3,79.41137,P,ugm-3
08-01-2024,05:00,43.70587,P,ugm-3,29.56530,P,ugm-3,96.58003,P,ugm-3
08-01-2024,06:00,36.52089,P,ugm-3,29.33893,P,ugm-3,85.33684,P,ugm-3
08-01-2024,07:00,59.99623,P,ugm-3,32.03668,P,ugm-3,124.02962,P,ugm-3
08-01-2024,08:00,55.29454,P,ugm-3,33.32037,P,ugm-3,118.10416,P,ugm-3
08-01-2024,09:00,78.30634,P,ugm-3,41.74275,P,ugm-3,161.81080,P,ugm-3
08-01-2024,10:00,103.60277,P,ugm-3,45.04144,P,ugm-3,203.89680,P,ugm-3
08-01-2024,11:00,130.88583,P,ugm-3,50.25721,P,ugm-3,250.94601,P,ugm-3
08-01-2024,12:00,94.66293,P,ugm-3,49.68354,P,ugm-3,194.83135,P,ugm-3
08-01-2024,13:00,65.82368,P,ugm-3,44.77745,P,ugm-3,145.70569,P,ugm-3
08-01-2024,14:00,60.29423,P,ugm-3,51.98970,P,ugm-3,144.43956,P,ugm-3
08-01-2024,15:00,52.48015,P,ugm-3,48.01795,P,ugm-3,128.48638,P,ugm-3
08-01-2024,16:00,32.38207,P,ugm-3,48.44756,P,ugm-3,98.09938,P,ugm-3
08-01-2024,17:00,30.39544,P,ugm-3,37.71824,P,ugm-3,84.32394,P,ugm-3
08-01-2024,18:00,12.48266,P,ugm-3,27.60553,P,ugm-3,46.74534,P,ugm-3
08-01-2024,19:00,13.27731,P,ugm-3,23.60161,P,ugm-3,43.95987,P,ugm-3
08-01-2024,20:00,6.35722,P,ugm-3,20.43683,P,ugm-3,30.18443,P,ugm-3
08-01-2024,21:00,3.74149,P,ugm-3,15.02759,P,ugm-3,20.76445,P,ugm-3
08-01-2024,22:00,9.90004,P,ugm-3,19.86650,P,ugm-3,35.04634,P,ugm-3
08-01-2024,23:00,4.66858,P,ugm-3,12.18800,P,ugm-3,19.34639,P,ugm-3
08-01-2024,24:00,1.65553,P,ugm-3,6.47638,P,ugm-3,9.01481,P,ugm-3
09-01-2024,01:00,1.41295,P,ugm-3,7.82952,P,ugm-3,9.99601,P,ugm-3
09-01-2024,02:00,1.10387,P,ugm-3,4.92641,P,ugm-3,6.61898,P,ugm-3
09-01-2024,03:00,0.56297,P,ugm-3,3.54381,P,ugm-3,4.40703,P,ugm-3
09-01-2024,04:00,1.02660,P,ugm-3,4.70718,P,ugm-3,6.28128,P,ugm-3
09-01-2024,05:00,2.31813,P,ugm-3,9.00815,P,ugm-3,12.56256,P,ugm-3
09-01-2024,06:00,4.83495,P,ugm-3,10.11331,P,ugm-3,17.52679,P,ugm-3
09-01-2024,07:00,16.39247,P,ugm-3,29.92773,P,ugm-3,55.06250,P,ugm-3
09-01-2024,08:00,19.90278,P,ugm-3,32.39693,P,ugm-3,62.91410,P,ugm-3
09-01-2024,09:00,31.32783,P,ugm-3,40.15584,P,ugm-3,88.19118,P,ugm-3
09-01-2024,10:00,24.43968,P,ugm-3,32.53220,P,ugm-3,70.00586,P,ugm-3
09-01-2024,11:00,32.75182,P,ugm-3,32.09638,P,ugm-3,82.31514,P,ugm-3
09-01-2024,12:00,17.28661,P,ugm-3,21.41432,P,ugm-3,47.92008,P,ugm-3
09-01-2024,13:00,17.45219,P,ugm-3,28.96138,P,ugm-3,55.72102,P,ugm-3
09-01-2024,14:00,19.53850,P,ugm-3,28.90304,P,ugm-3,58.86166,P,ugm-3
09-01-2024,15:00,19.63785,P,ugm-3,30.27038,P,ugm-3,60.38132,P,ugm-3
09-01-2024,16:00,14.96848,P,ugm-3,31.30067,P,ugm-3,54.25201,P,ugm-3
09-01-2024,17:00,32.08950,P,ugm-3,41.67270,P,ugm-3,90.87592,P,ugm-3
09-01-2024,18:00,23.01569,P,ugm-3,32.68941,P,ugm-3,67.97964,P,ugm-3
09-01-2024,19:00,23.31374,P,ugm-3,38.05779,P,ugm-3,73.80502,P,ugm-3
09-01-2024,20:00,10.26599,P,ugm-3,21.69343,P,ugm-3,37.43439,P,ugm-3
09-01-2024,21:00,4.63625,P,ugm-3,10.82321,P,ugm-3,17.93204,P,ugm-3
09-01-2024,22:00,3.01357,P,ugm-3,7.03002,P,ugm-3,11.65076,P,ugm-3
09-01-2024,23:00,1.98697,P,ugm-3,4.19709,P,ugm-3,7.24373,P,ugm-3
09-01-2024,24:00,1.42399,P,ugm-3,4.75638,P,ugm-3,6.93980,P,ugm-3
10-01-2024,01:00,0.79492,P,ugm-3,3.23974,P,ugm-3,4.45860,P,ugm-3
10-01-2024,02:00,0.26497,P,ugm-3,1.48524,P,ugm-3,1.89153,P,ugm-3
10-01-2024,03:00,0.62931,P,ugm-3,2.07502,P,ugm-3,3.03996,P,ugm-3
10-01-2024,04:00,1.09302,P,ugm-3,3.28933,P,ugm-3,4.96526,P,ugm-3
10-01-2024,05:00,2.21915,P,ugm-3,4.60256,P,ugm-3,8.00522,P,ugm-3
10-01-2024,06:00,2.35164,P,ugm-3,9.92201,P,ugm-3,13.52781,P,ugm-3
10-01-2024,07:00,4.67016,P,ugm-3,7.78564,P,ugm-3,14.94645,P,ugm-3
10-01-2024,08:00,7.08804,P,ugm-3,13.29947,P,ugm-3,24.16765,P,ugm-3
10-01-2024,09:00,19.77365,P,ugm-3,24.45070,P,ugm-3,54.76988,P,ugm-3
10-01-2024,10:00,17.65387,P,ugm-3,20.05044,P,ugm-3,47.11932,P,ugm-3
10-01-2024,11:00,23.48328,P,ugm-3,26.36257,P,ugm-3,62.36977,P,ugm-3
10-01-2024,12:00,41.86583,P,ugm-3,50.46364,P,ugm-3,114.65701,P,ugm-3
10-01-2024,13:00,19.30995,P,ugm-3,32.86292,P,ugm-3,62.47110,P,ugm-3
10-01-2024,14:00,19.17746,P,ugm-3,29.77278,P,ugm-3,59.17781,P,ugm-3
10-01-2024,15:00,26.86170,P,ugm-3,38.35816,P,ugm-3,79.54552,P,ugm-3
10-01-2024,16:00,34.84403,P,ugm-3,48.05711,P,ugm-3,101.48387,P,ugm-3
10-01-2024,17:00,40.50784,P,ugm-3,52.34320,P,ugm-3,114.45435,P,ugm-3
10-01-2024,18:00,26.49736,P,ugm-3,42.31142,P,ugm-3,82.94014,P,ugm-3
10-01-2024,19:00,16.95831,P,ugm-3,34.18876,P,ugm-3,60.19113,P,ugm-3
10-01-2024,20:00,10.79767,P,ugm-3,23.41922,P,ugm-3,39.97542,P,ugm-3
10-01-2024,21:00,6.39249,P,ugm-3,18.87524,P,ugm-3,28.67692,P,ugm-3
10-01-2024,22:00,3.97460,P,ugm-3,9.56147,P,ugm-3,15.65578,P,ugm-3
10-01-2024,23:00,2.41788,P,ugm-3,8.45245,P,ugm-3,12.15982,P,ugm-3
10-01-2024,24:00,1.25862,P,ugm-3,4.65671,P,ugm-3,6.58657,P,ugm-3
11-01-2024,01:00,0.70672,P,ugm-3,2.36238,P,ugm-3,3.44600,P,ugm-3
11-01-2024,02:00,0.26502,P,ugm-3,1.41799,P,ugm-3,1.82435,P,ugm-3
11-01-2024,03:00,0.43066,P,ugm-3,3.29243,P,ugm-3,3.95276,P,ugm-3
11-01-2024,04:00,1.19258,P,ugm-3,3.08701,P,ugm-3,4.91561,P,ugm-3
11-01-2024,05:00,1.55698,P,ugm-3,2.83233,P,ugm-3,5.21967,P,ugm-3
11-01-2024,06:00,2.55080,P,ugm-3,5.61599,P,ugm-3,9.52716,P,ugm-3
11-01-2024,07:00,6.62546,P,ugm-3,12.03737,P,ugm-3,22.19626,P,ugm-3
11-01-2024,08:00,14.47663,P,ugm-3,21.73925,P,ugm-3,43.93644,P,ugm-3
11-01-2024,09:00,26.17056,P,ugm-3,32.59300,P,ugm-3,72.72063,P,ugm-3
11-01-2024,10:00,22.89096,P,ugm-3,35.89865,P,ugm-3,70.99764,P,ugm-3
11-01-2024,11:00,41.34286,P,ugm-3,43.13029,P,ugm-3,106.52179,P,ugm-3
11-01-2024,12:00,26.83311,P,ugm-3,29.49938,P,ugm-3,70.64290,P,ugm-3
11-01-2024,13:00,18.25314,P,ugm-3,29.78334,P,ugm-3,57.77110,P,ugm-3
11-01-2024,14:00,45.94756,P,ugm-3,51.77954,P,ugm-3,122.23148,P,ugm-3
11-01-2024,15:00,23.52038,P,ugm-3,42.43367,P,ugm-3,78.49774,P,ugm-3
11-01-2024,16:00,141.35416,P,ugm-3,73.17966,P,ugm-3,289.91969,P,ugm-3
11-01-2024,17:00,189.09059,P,ugm-3,83.55021,P,ugm-3,373.48507,P,ugm-3
11-01-2024,18:00,134.16554,P,ugm-3,68.49238,P,ugm-3,274.21000,P,ugm-3
11-01-2024,19:00,99.08374,P,ugm-3,58.53281,P,ugm-3,210.45909,P,ugm-3
11-01-2024,20:00,38.06326,P,ugm-3,47.14541,P,ugm-3,105.50827,P,ugm-3
11-01-2024,21:00,19.87638,P,ugm-3,37.48037,P,ugm-3,67.95705,P,ugm-3
11-01-2024,22:00,15.86797,P,ugm-3,31.61619,P,ugm-3,55.94675,P,ugm-3
11-01-2024,23:00,11.06452,P,ugm-3,28.39002,P,ugm-3,45.35538,P,ugm-3
11-01-2024,24:00,9.87193,P,ugm-3,26.41789,P,ugm-3,41.55465,P,ugm-3
12-01-2024,01:00,3.79924,P,ugm-3,21.81582,P,ugm-3,27.64124,P,ugm-3
12-01-2024,02:00,1.32532,P,ugm-3,11.41679,P,ugm-3,13.44891,P,ugm-3
12-01-2024,03:00,3.37955,P,ugm-3,14.23116,P,ugm-3,19.41307,P,ugm-3
12-01-2024,04:00,1.32532,P,ugm-3,13.07256,P,ugm-3,15.10469,P,ugm-3
12-01-2024,05:00,3.67775,P,ugm-3,11.69577,P,ugm-3,17.33491,P,ugm-3
12-01-2024,06:00,0.69579,P,ugm-3,2.58259,P,ugm-3,3.64945,P,ugm-3
12-01-2024,07:00,5.30126,P,ugm-3,8.80092,P,ugm-3,16.92941,P,ugm-3
12-01-2024,08:00,15.30740,P,ugm-3,30.10501,P,ugm-3,53.57602,P,ugm-3
12-01-2024,09:00,12.15977,P,ugm-3,13.74419,P,ugm-3,32.38891,P,ugm-3
12-01-2024,10:00,10.40373,P,ugm-3,22.11368,P,ugm-3,38.06584,P,ugm-3
12-01-2024,11:00,2.18677,P,ugm-3,7.49399,P,ugm-3,10.84699,P,ugm-3
12-01-2024,12:00,3.18076,P,ugm-3,7.43981,P,ugm-3,12.31691,P,ugm-3
12-01-2024,13:00,25.28040,P,ugm-3,29.15767,P,ugm-3,67.92040,P,ugm-3
12-01-2024,14:00,23.52435,P,ugm-3,32.71191,P,ugm-3,68.78208,P,ugm-3
12-01-2024,15:00,18.18996,P,ugm-3,26.34407,P,ugm-3,54.23495,P,ugm-3
12-01-2024,16:00,16.99717,P,ugm-3,29.08534,P,ugm-3,55.14731,P,ugm-3
12-01-2024,17:00,20.37673,P,ugm-3,28.41456,P,ugm-3,59.65844,P,ugm-3
12-01-2024,18:00,33.06663,P,ugm-3,50.82434,P,ugm-3,101.52579,P,ugm-3
12-01-2024,19:00,15.30740,P,ugm-3,37.45460,P,ugm-3,60.92561,P,ugm-3
12-01-2024,20:00,9.80734,P,ugm-3,19.63211,P,ugm-3,34.66982,P,ugm-3
12-01-2024,21:00,5.86452,P,ugm-3,14.88137,P,ugm-3,23.87351,P,ugm-3
12-01-2024,22:00,5.10247,P,ugm-3,17.06358,P,ugm-3,24.88725,P,ugm-3
12-01-2024,23:00,2.91570,P,ugm-3,10.27921,P,ugm-3,14.74988,P,ugm-3
12-01-2024,24:00,1.52411,P,ugm-3,6.38120,P,ugm-3,8.71814,P,ugm-3
13-01-2024,01:00,1.14880,P,ugm-3,5.60654,P,ugm-3,7.36801,P,ugm-3
13-01-2024,02:00,0.61859,P,ugm-3,2.43134,P,ugm-3,3.37982,P,ugm-3
13-01-2024,03:00,0.26511,P,ugm-3,1.36791,P,ugm-3,1.77441,P,ugm-3
13-01-2024,04:00,0.26511,P,ugm-3,0.70885,P,ugm-3,1.11534,P,ugm-3
13-01-2024,05:00,0.53022,P,ugm-3,2.38095,P,ugm-3,3.19393,P,ugm-3
13-01-2024,06:00,1.52437,P,ugm-3,5.82494,P,ugm-3,8.16227,P,ugm-3
13-01-2024,07:00,2.18714,P,ugm-3,9.52355,P,ugm-3,12.87712,P,ugm-3
13-01-2024,08:00,5.89865,P,ugm-3,20.71486,P,ugm-3,29.75933,P,ugm-3
13-01-2024,09:00,13.95130,P,ugm-3,31.89119,P,ugm-3,53.28289,P,ugm-3
13-01-2024,10:00,22.07023,P,ugm-3,40.63383,P,ugm-3,74.47438,P,ugm-3
13-01-2024,11:00,30.25544,P,ugm-3,47.65252,P,ugm-3,94.04355,P,ugm-3
13-01-2024,12:00,18.29245,P,ugm-3,34.61388,P,ugm-3,62.66190,P,ugm-3
13-01-2024,13:00,14.64721,P,ugm-3,24.28419,P,ugm-3,46.74294,P,ugm-3
13-01-2024,14:00,11.33336,P,ugm-3,19.98635,P,ugm-3,37.36393,P,ugm-3
13-01-2024,15:00,11.63161,P,ugm-3,24.64948,P,ugm-3,42.48436,P,ugm-3
13-01-2024,16:00,18.42500,P,ugm-3,36.99619,P,ugm-3,65.24746,P,ugm-3
13-01-2024,17:00,33.66870,P,ugm-3,53.87652,P,ugm-3,105.50114,P,ugm-3
13-01-2024,18:00,36.18723,P,ugm-3,55.74363,P,ugm-3,111.22994,P,ugm-3
13-01-2024,19:00,33.33732,P,ugm-3,60.92459,P,ugm-3,112.04110,P,ugm-3
13-01-2024,20:00,23.56147,P,ugm-3,55.63509,P,ugm-3,91.76217,P,ugm-3
13-01-2024,21:00,24.68817,P,ugm-3,56.89864,P,ugm-3,94.75331,P,ugm-3
13-01-2024,22:00,25.41722,P,ugm-3,50.60966,P,ugm-3,89.58218,P,ugm-3
13-01-2024,23:00,14.51466,P,ugm-3,39.95013,P,ugm-3,62.20562,P,ugm-3
13-01-2024,24:00,9.01367,P,ugm-3,29.17057,P,ugm-3,42.99134,P,ugm-3
14-01-2024,01:00,6.40786,P,ugm-3,25.19694,P,ugm-3,35.02218,P,ugm-3
14-01-2024,02:00,6.45205,P,ugm-3,28.03643,P,ugm-3,37.92943,P,ugm-3
14-01-2024,03:00,4.87218,P,ugm-3,21.38216,P,ugm-3,28.85273,P,ugm-3
14-01-2024,04:00,5.99908,P,ugm-3,20.00923,P,ugm-3,29.20769,P,ugm-3
14-01-2024,05:00,3.04926,P,ugm-3,15.65837,P,ugm-3,20.33383,P,ugm-3
14-01-2024,06:00,3.57956,P,ugm-3,18.09054,P,ugm-3,23.57913,P,ugm-3
14-01-2024,07:00,10.87126,P,ugm-3,24.15074,P,ugm-3,40.81978,P,ugm-3
14-01-2024,08:00,14.21881,P,ugm-3,30.27503,P,ugm-3,52.07691,P,ugm-3
14-01-2024,09:00,15.01427,P,ugm-3,40.92097,P,ugm-3,63.94253,P,ugm-3
14-01-2024,10:00,12.85991,P,ugm-3,29.26548,P,ugm-3,48.98373,P,ugm-3
14-01-2024,11:00,20.61562,P,ugm-3,38.31587,P,ugm-3,69.92605,P,ugm-3
14-01-2024,12:00,25.35522,P,ugm-3,45.85526,P,ugm-3,84.73272,P,ugm-3
14-01-2024,13:00,19.98588,P,ugm-3,26.90876,P,ugm-3,57.55335,P,ugm-3
14-01-2024,14:00,15.90916,P,ugm-3,28.29169,P,ugm-3,52.68540,P,ugm-3
14-01-2024,15:00,15.44514,P,ugm-3,29.35813,P,ugm-3,53.04035,P,ugm-3
14-01-2024,16:00,13.19135,P,ugm-3,27.74313,P,ugm-3,47.96957,P,ugm-3
14-01-2024,17:00,8.25288,P,ugm-3,18.93672,P,ugm-3,31.59096,P,ugm-3
14-01-2024,18:00,13.68851,P,ugm-3,29.05984,P,ugm-3,50.04859,P,ugm-3
14-01-2024,19:00,15.41200,P,ugm-3,41.78165,P,ugm-3,65.41305,P,ugm-3
14-01-2024,20:00,21.04649,P,ugm-3,47.89818,P,ugm-3,80.16902,P,ugm-3
14-01-2024,21:00,7.75572,P,ugm-3,21.57521,P,ugm-3,33.46714,P,ugm-3
14-01-2024,22:00,10.47353,P,ugm-3,30.23703,P,ugm-3,46.29622,P,ugm-3
14-01-2024,23:00,2.85039,P,ugm-3,7.59650,P,ugm-3,11.96704,P,ugm-3
14-01-2024,24:00,1.88921,P,ugm-3,5.16579,P,ugm-3,8.06254,P,ugm-3
15-01-2024,01:00,2.12158,P,ugm-3,6.07912,P,ugm-3,9.33216,P,ugm-3
15-01-2024,02:00,0.53039,P,ugm-3,3.31183,P,ugm-3,4.12509,P,ugm-3
15-01-2024,03:00,2.35363,P,ugm-3,11.30232,P,ugm-3,14.91117,P,ugm-3
15-01-2024,04:00,0.59670,P,ugm-3,5.17127,P,ugm-3,6.08619,P,ugm-3
15-01-2024,05:00,1.45859,P,ugm-3,3.49470,P,ugm-3,5.73116,P,ugm-3
15-01-2024,06:00,3.24867,P,ugm-3,10.94431,P,ugm-3,15.92553,P,ugm-3
15-01-2024,07:00,33.87897,P,ugm-3,50.60528,P,ugm-3,102.55232,P,ugm-3
15-01-2024,08:00,51.44830,P,ugm-3,65.96505,P,ugm-3,144.85135,P,ugm-3
15-01-2024,09:00,34.34307,P,ugm-3,50.19799,P,ugm-3,102.85663,P,ugm-3
15-01-2024,10:00,86.35492,P,ugm-3,80.04976,P,ugm-3,212.45878,P,ugm-3
15-01-2024,11:00,40.27686,P,ugm-3,50.43180,P,ugm-3,112.18879,P,ugm-3
15-01-2024,12:00,21.21580,P,ugm-3,29.14297,P,ugm-3,61.67340,P,ugm-3
15-01-2024,13:00,16.57484,P,ugm-3,24.99955,P,ugm-3,50.41395,P,ugm-3
15-01-2024,14:00,17.23783,P,ugm-3,26.82320,P,ugm-3,53.25417,P,ugm-3
15-01-2024,15:00,16.87319,P,ugm-3,30.52684,P,ugm-3,56.39870,P,ugm-3
15-01-2024,16:00,14.35381,P,ugm-3,25.31126,P,ugm-3,47.32014,P,ugm-3